OBJECT D, 56746

Orbit data source: Space-Track

You're viewing an Uncataloged Satellite

Recently launched and/or uncataloged satellites may have evolving metadata. Metadata may include but not limited to: Owner, Maufacturer, Bus, Motor, and Mission.

OBJECT D, 56746 is a South Korean satellite in SSO that was launched on Thu, 25 May 2023 UTC via an NURI launch vehicle from the Naro Space Center, South Korea (NSC). Unknown objects in Earth's orbit typically refer to objects detected orbiting the Earth but have not yet been identified or cataloged. These objects could be anything from previously untracked satellites, spent rocket stages, debris from satellite collisions, or even natural meteoroids temporarily captured by Earth's gravity.

Loading next visibility...
Identifier
56746, 2023-072D
Orbit
SSO
Country
Flag of UnknownUnknown / SKOR
Related business
None
Manufacturer
Unknown
Mission
Operational Civil Ast/Sci
Bus & Motor
Unknown
Mass
Unknown
Launch date (UTC)
2023-05-25 (2 years ago)
Launch vehicle
NURI
Launch site
Naro Space Center, South Korea (NSC)
Object type
Unknown
Shape & HBR
Box + 2 Pan, 0.3 m
Radar Cross Section
0.054 m², Small (<0.1 m²)

Expand to show TLE details & history
Last TLE update: 10 hours ago

TLE from 10 hours ago
0 OBJECT D
1 56746U 23072D   25286.60884720  .00039529  00000-0  92986-3 0  9995
2 56746  97.5229 125.9895 0004881 124.6470 235.5238 15.41860725132562
Epoch: 2025-10-13T14:36Z
TLE epoch observation values (Epoch: 2025-10-13T14:36:44.398Z)
Latitude
0.00007°
Longitude
-115.60468°
Altitude
445.62 km
Speed
7.644 km/s
True Right ascension
08h 23m 57s
True Declination
0° 00' 00"
Sunlit
Object was in daylight at epoch
Visualization orbit readout
Latitude
Unknown
Longitude
Unknown
Altitude
Unknown
Speed
Unknown
Apparent Right ascension
Unknown
Apparent Declination
Unknown
Sunlit
N/A
Visualization observer readout
Local Sidereal Time
19:37:35
Azimuth
Unknown
Elevation
Unknown
Doppler factor
Unknown
Orbital elements
Apogee altitude
440.886 km
Perigee altitude
434.233 km
Semi-major axis
6,815.697 km
Eccentricity
0.00049
Inclination
97.5229°
RAAN
125.9895°
Arg. of periapsis
124.647°
True anomaly
235.47771°
Mean anomaly
235.5238°
Eccentric anomaly
235.50075°
Mean motion
3.85725 °/min
Orbital period
93.33 mins
BSTAR
0.00092986
Loading maneuver chart data...
Computing Atmospheric mass density...
Loading historical data...
Loading historical data...
Loading historical data...
Loading historical data...
Loading historical data...
Loading historical data...
Loading historical data...

Documentation

Showing up to 5 results
|